This is the latest recevied weather packets stored in our database for station/object K7PMV-13. If no packets are shown the sender has not sent any weather packets the latest 10 day(s).
| Time | Temp. | Humidity | Pressure | Rain* | Wind** | Luminosity | Snow |
|---|---|---|---|---|---|---|---|
| 1777668926 | 31.67° C | 23% | 1006.1 hPa | 0 mm | - | 877 W/m² | - |
| 1777668624 | 30° C | 24% | 1006.2 hPa | 0 mm | - | 882 W/m² | - |
| 1777668321 | 30.56° C | 25% | 1006.3 hPa | 0 mm | - | 891 W/m² | - |
| 1777668018 | 30° C | 24% | 1006.4 hPa | 0 mm | - | 898 W/m² | - |
| 1777667716 | 30.56° C | 23% | 1006.5 hPa | 0 mm | - | 905 W/m² | - |
| 1777667413 | 31.11° C | 22% | 1006.5 hPa | 0 mm | - | 912 W/m² | - |
| 1777667111 | 30.56° C | 23% | 1006.5 hPa | 0 mm | - | 919 W/m² | - |
| 1777666808 | 30.56° C | 23% | 1006.6 hPa | 0 mm | - | 923 W/m² | - |
| 1777666505 | 31.11° C | 23% | 1006.6 hPa | 0 mm | - | 928 W/m² | - |
| 1777666203 | 30° C | 25% | 1006.6 hPa | 0 mm | - | 935 W/m² | - |
| 1777665900 | 30.56° C | 25% | 1006.7 hPa | 0 mm | - | 933 W/m² | - |
| 1777665598 | 30.56° C | 27% | 1006.6 hPa | 0 mm | - | 939 W/m² | - |
| 1777665294 | 30° C | 26% | 1006.7 hPa | 0 mm | - | 940 W/m² | - |
| 1777664992 | 30° C | 26% | 1006.7 hPa | 0 mm | - | 942 W/m² | - |
| 1777664690 | 29.44° C | 27% | 1006.9 hPa | 0 mm | - | 944 W/m² | - |
| 1777664386 | 28.89° C | 26% | 1006.9 hPa | 0 mm | - | 944 W/m² | - |
| 1777664084 | 29.44° C | 26% | 1007 hPa | 0 mm | - | 951 W/m² | - |
| 1777663781 | 29.44° C | 26% | 1007.1 hPa | 0 mm | - | 951 W/m² | - |
| 1777663478 | 29.44° C | 26% | 1007.2 hPa | 0 mm | - | 951 W/m² | - |
| 1777663175 | 29.44° C | 26% | 1007.3 hPa | 0 mm | - | 947 W/m² | - |
| 1777662870 | 29.44° C | 27% | 1007.3 hPa | 0 mm | - | 944 W/m² | - |
| 1777662567 | 28.89° C | 28% | 1007.4 hPa | 0 mm | - | 942 W/m² | - |
| 1777662263 | 28.89° C | 29% | 1007.5 hPa | 0 mm | - | 944 W/m² | - |
| 1777661961 | 28.89° C | 30% | 1007.5 hPa | 0 mm | - | 942 W/m² | - |
| 1777661657 | 28.33° C | 29% | 1007.7 hPa | 0 mm | - | 939 W/m² | - |
* Rain latest hour (hover to see other rain measurements)
** Current wind speed in m/s (hover to see current wind gust speed)